#timestamp,LO_Frequency,Hit,StdDev 
1660395615.1,286047000.3,N
1660395635.9,286047002.8,N
1660395655.7,286047002.8,N
1660395675.5,286047000.4,N
1660395695.4,286047001.1,N
1660395715.2,286047001.2,N
1660395735.1,286046998.8,N
1660395736.0,286046998.8,N
1660395755.8,286046999.1,N
1660395775.6,286046996.8,N
1660395795.5,286046999.6,N
1660395815.3,286046998.6,N
1660395835.2,286046999.5,N
1660395855.9,286046999.2,N
1660395875.7,286046999.6,N
1660395895.6,286046999.5,N
1660395915.4,286046999.2,N
1660395935.2,286046999.3,N
1660395955.1,286046999.6,N
1660395956.0,286046999.6,N
1660395975.8,286046996.6,N
1660395995.7,286046999.2,N
1660396015.5,286047000.6,N
1660396035.3,286047000.3,N
1660396055.2,286047002.6,N
1660396075.0,286047002.1,N
1660396075.9,286047002.1,N
1660396095.8,286047001.7,N
1660396115.6,286047002.5,N
1660396135.4,286047000.3,N
1660396155.3,286047000.4,N
1660396175.1,286047000.5,N
1660396195.8,286047000.6,N
1660396215.7,286047000.0,N
1660396235.5,286047000.8,N
1660396255.4,286047000.9,N
1660396275.2,286047000.7,N
1660396295.0,286046999.4,N
1660396295.9,286046999.4,N
1660396315.8,286046997.0,N
1660396335.6,286047000.4,N
1660396355.5,286047000.2,N
1660396375.3,286047001.0,N
1660396395.1,286046998.2,N
1660396415.9,286047001.2,N
1660396435.7,286046998.3,N
1660396455.6,286046998.8,N
1660396475.4,286047001.0,N
1660396495.2,286046998.5,N
1660396515.1,286046998.2,N
1660396516.0,286046998.2,N
1660396535.8,286047001.2,N
1660396555.6,286046999.6,N
1660396575.5,286046996.9,N
1660396595.3,286047001.2,N
1660396615.2,286046998.1,N
1660396635.9,286046998.5,N
1660396655.7,286046996.9,N
1660396675.6,286046996.7,N
1660396695.4,286046996.6,N
1660396715.3,286046998.5,N
1660396735.1,286046998.7,N
1660396736.0,286046998.7,N
1660396755.8,286046998.7,N
1660396775.7,286047001.1,N
1660396795.5,286047000.8,N
1660396815.3,286047001.2,N
1660396835.2,286047000.7,N
1660396855.0,286047000.5,N
1660396855.9,286047000.5,N
1660396875.8,286047000.6,N
1660396895.6,286047001.0,N
1660396915.4,286046998.5,N
1660396935.3,286046999.2,N
1660396955.1,286046999.3,N
1660396975.9,286047000.7,N
1660396995.7,286046999.0,N
1660397015.5,286046998.7,N
1660397035.4,286046999.0,N
1660397055.2,286047000.7,N
1660397075.0,286046998.7,N
1660397075.9,286046998.7,N
1660397095.8,286047002.8,N
1660397115.6,286047002.0,N
1660397135.5,286047002.4,N
1660397155.3,286047002.4,N
1660397175.1,286047000.4,N
1660397195.9,286047000.7,N
1660397215.7,286046998.1,N
1660397235.5,286047001.2,N
1660397255.4,286046998.3,N
1660397275.2,286046999.4,N
1660397295.1,286046999.1,N
1660397296.0,286046999.1,N
1660397315.8,286046999.5,N
1660397335.6,286047000.8,N
1660397355.5,286046998.9,N
1660397375.3,286046999.5,N
1660397395.1,286046999.4,N
1660397415.9,286046999.0,N
1660397435.7,286046998.8,N
1660397455.6,286046999.4,N
1660397475.4,286046998.7,N
1660397495.2,286046998.8,N
1660397515.1,286046997.0,N
1660397516.0,286046997.0,N
1660397535.8,286046997.6,N
1660397555.6,286046999.6,N
1660397575.5,286046999.6,N
1660397595.3,286046999.3,N
1660397615.2,286047000.7,N
1660397635.9,286047000.2,N
1660397655.7,286046998.1,N
1660397675.6,286046998.3,N
1660397695.4,286046999.8,N
1660397715.3,286047000.4,N
1660397735.1,286046999.7,N
1660397736.0,286046999.7,N
1660397755.8,286047000.2,N
1660397775.7,286047002.4,N
1660397795.5,286047000.3,N
1660397815.4,286047002.4,N
1660397835.2,286047001.0,N
1660397855.0,286047000.9,N
1660397855.9,286047000.9,N
1660397875.8,286046998.9,N
1660397895.6,286046999.1,N
1660397915.4,286046996.9,N
1660397935.3,286046999.4,N
1660397955.1,286046998.2,N
1660397975.9,286046998.7,N
1660397995.7,286046999.0,N
1660398015.5,286046999.1,N
1660398035.4,286047000.4,N
1660398055.2,286047000.7,N
1660398075.0,286046998.5,N
1660398076.0,286046998.5,N
1660398095.8,286046998.5,N
1660398115.6,286046998.6,N
1660398135.5,286047000.7,N
1660398155.3,286047001.2,N
1660398175.1,286047000.7,N
1660398195.9,286046999.9,N
1660398215.7,286047000.6,N
1660398235.6,286047000.0,N
1660398255.4,286047001.0,N
1660398275.3,286047000.9,N
1660398295.1,286047001.0,N
1660398296.0,286047001.0,N
1660398315.8,286047000.6,N
1660398335.7,286047000.5,N
1660398355.5,286047001.2,N
1660398375.4,286046998.1,N
1660398395.2,286047000.5,N
1660398415.0,286047000.5,N
1660398416.0,286047000.5,N
1660398435.8,286047000.2,N
1660398455.6,286047000.8,N
1660398475.5,286047001.1,N
1660398495.3,286047000.3,N
1660398515.1,286047000.7,N
1660398535.9,286046998.2,N
1660398555.7,286047000.6,N
1660398575.6,286046998.1,N
1660398595.4,286047001.2,N
1660398615.2,286046998.9,N
1660398635.1,286046997.0,N
1660398636.0,286046997.0,N
1660398655.8,286046997.6,N
1660398675.7,286046995.1,Y
1660398695.5,286046996.6,P
1660398715.3,286047001.1,N
1660398735.2,286047001.1,N
1660398755.0,286047000.6,N
1660398755.9,286047000.6,N
1660398775.7,286047001.1,N
1660398795.6,286046998.4,N
1660398815.4,286046999.6,N
1660398835.3,286046997.2,N
1660398855.1,286046996.9,N
1660398856.0,286046996.9,N
1660398875.8,286046999.5,N
1660398895.7,286046996.8,N
1660398915.5,286046996.7,N
1660398935.4,286046999.2,N
1660398955.2,286046997.3,N
1660398975.0,286046997.9,N
1660398975.9,286046997.9,N
1660398995.8,286046995.2,N
1660399015.6,286046994.9,N
1660399035.4,286046995.2,N
1660399055.3,286046995.1,N
1660399075.1,286046997.3,N
1660399095.9,286046996.7,N
1660399115.7,286046997.6,N
1660399135.5,286046995.9,N
1660399155.4,286046993.8,Y
1660399175.2,286046994.9,P
1660399195.0,286046997.9,N
1660399196.0,286046997.9,N
